Погода в Равнинном

Россия / Оренбургская область     53°12′39″N   54°04′23″E
темп.,
°C
ветер,
м/с
пор.,
м/с
влажн.,
%
обл.,
%
осадки,
мм/ч
давл.,
гПа
погр.,
м
19 апреля, пн
пн1923:00+8св914705 0.0 1019426
02:00+6всв711772 0.0 1020358
05:00+4в8136259 0.0 1022471
08:00+3в91361100 0.1 1024694
11:00+2в101269100 0.1 1026739
14:00+4вюв81068100 0.1 1026956
17:00+8вюв7939100 0.1 10251597
20:00+6в71042100 0.0 1026346
20 апреля, вт
вт2023:00+3вюв8134072 0.0 1028449
02:00+1вюв712455 0.0 1030395
05:00−1в712470 0.0 1032451
08:000вюв811400 0.0 1033754
11:00+3вюв89300 0.0 10331080
14:00+7вюв89270 0.0 10321330
17:00+8вюв78250 0.0 10311446
20:00+7юв57350 0.0 1030155
21 апреля, ср
ср2123:00+4юв48455 0.0 1031135
02:00+2юв3654100 0.0 103197
05:000юв495829 0.0 1032196
08:00+2юв71348100 0.0 1032566
11:00+6юв9113288 0.0 1031859
14:00+10ююв91026100 0.0 10301184
17:00+11ююв8102799 0.0 10291341
20:00+9ююв71137100 0.0 1029300
22 апреля, чт
чт2223:00+7юв71445100 0.0 1029409
02:00+6ююв71454100 0.0 1030396
05:00+5ююв51162100 0.0 1031411
08:00+4ююв61066100 0.0 1031478
11:00+8ююв91142100 0.0 1031864
14:00+11ю81031100 0.0 10301552
17:00+12ю81034100 0.0 10301697
20:00+9ю5755100 0.0 1032623
23 апреля, пт
пт2323:00+7ю3469100 0.0 1032156
02:00+7в3368100 0.0 103077
05:00+6ююв2271100 0.0 103015
08:00+6ююв3681100 0.4 1030758
11:00+7ююв5680100 1.1 1029696
14:00+13ююв794599 0.0 10271823
17:00+15ююв8939100 0.0 10252099
20:00+11ю5860100 0.0 1025366